Location: Carlingford
(46.7848°N, 67.7474°W)
Time: 12:45:34
(UTC+00:00)

N. Korean satellite - Pass Details

Date: 06 December 2022
Orbit: 407 x 441 km, 97.3° (Epoch: 05 February)

Event Time Altitude Azimuth Distance (km) Brightness Sun altitude
Rises 09:52:42 0° 13° (NNE) 2,518 10.2 -21.1°
Reaches altitude 10° 09:54:46 10° 14° (NNE) 1,630 9.2 -20.7°
Maximum altitude 09:58:17 83° 104° (ESE) 471 6.4 -20.1°
Drops below altitude 10° 10:01:42 10° 191° (S) 1,589 9.2 -19.6°
Sets 10:03:42 0° 192° (SSW) 2,446 10.1 -19.2°
